This is the latest recevied weather packets stored in our database for station/object N8WJW. If no packets are shown the sender has not sent any weather packets the latest 10 day(s).
| Time | Temp. | Humidity | Pressure | Rain* | Wind** | Luminosity | Snow |
|---|---|---|---|---|---|---|---|
| 1778196267 | 10.56° C | 51% | 1013.2 hPa | 0 mm | - | 27 W/m² | - |
| 1778195965 | 10.56° C | 48% | 1013.2 hPa | 0 mm | - | 28 W/m² | - |
| 1778195661 | 10.56° C | 51% | 1013.1 hPa | 0 mm | - | 31 W/m² | - |
| 1778195357 | 11.11° C | 48% | 1013.4 hPa | 0 mm | - | 31 W/m² | - |
| 1778195055 | 11.11° C | 48% | 1013.1 hPa | 0 mm | - | 33 W/m² | - |
| 1778194755 | 11.11° C | 48% | 1013.2 hPa | 0 mm | - | 35 W/m² | - |
| 1778194452 | 11.11° C | 47% | 1013.2 hPa | 0 mm | - | 37 W/m² | - |
| 1778194148 | 11.11° C | 49% | 1013.2 hPa | 0 mm | - | 39 W/m² | - |
| 1778193844 | 11.67° C | 45% | 1013.3 hPa | 0 mm | - | 41 W/m² | - |
| 1778193541 | 11.67° C | 49% | 1013.3 hPa | 0 mm | - | 44 W/m² | - |
| 1778193236 | 12.22° C | 46% | 1013.2 hPa | 0 mm | - | 89 W/m² | - |
| 1778192934 | 12.78° C | 43% | 1013.1 hPa | 0 mm | - | 196 W/m² | - |
| 1778192630 | 13.33° C | 46% | 1013.2 hPa | 0 mm | - | 212 W/m² | - |
| 1778192327 | 12.78° C | 47% | 1013.2 hPa | 0 mm | - | 228 W/m² | - |
| 1778192024 | 12.78° C | 44% | 1013 hPa | 0 mm | - | 252 W/m² | - |
| 1778191719 | 12.78° C | 44% | 1013.1 hPa | 0 mm | - | 263 W/m² | - |
| 1778191418 | 12.78° C | 47% | 1013.4 hPa | 0 mm | - | 280 W/m² | - |
| 1778191114 | 13.33° C | 52% | 1012.9 hPa | 0 mm | - | 299 W/m² | - |
| 1778190811 | 13.33° C | 49% | 1013.1 hPa | 0 mm | - | 319 W/m² | - |
| 1778190508 | 12.78° C | 49% | 1013 hPa | 0 mm | - | 339 W/m² | - |
| 1778190206 | 13.33° C | 50% | 1013.1 hPa | 0 mm | - | 355 W/m² | - |
| 1778189900 | 13.33° C | 50% | 1012.9 hPa | 0 mm | - | 386 W/m² | - |
| 1778189598 | 12.78° C | 52% | 1012.9 hPa | 0 mm | - | 409 W/m² | - |
| 1778189295 | 12.78° C | 50% | 1013 hPa | 0 mm | - | 449 W/m² | - |
| 1778188991 | 12.78° C | 54% | 1012.9 hPa | 0 mm | - | 479 W/m² | - |
* Rain latest hour (hover to see other rain measurements)
** Current wind speed in m/s (hover to see current wind gust speed)